Hourly Weather Roundup
Issued by NWS Central Illinois

Home | Current Version | Previous Version | Graphics & Text | Print | Product List | Glossary On
Versions: 1 2 3 4 5 6 7 8 9 10 11 12 13 14 15 16 17 18 19 20 21 22 23 24 25 26 27 28 29 30 31 32 33 34 35 36 37 38 39 40 41 42 43 44 45 46 47 48 49 50
000
NZUS43 KILX 021510
HWRILX

AREA WEATHER ROUNDUP
NATIONAL WEATHER SERVICE, LINCOLN IL
900 AM CST FRI DEC 02 2016


CITY           SKY/WX    TMP DP  RH WIND       PRES   REMARKS
BLOOMINGTON    CLOUDY    36  32  85 W8        30.20  WCI  30
CHAMPAIGN      CLOUDY    38  31  76 W13       30.20R HAZE    WCI  30
DANVILLE       CLOUDY    37  32  84 W8        30.17R WCI  30
DECATUR        CLOUDY    38  30  73 W7        30.22R WCI  33
EFFINGHAM      CLOUDY    35  34  93 S3        30.26R
FLORA          SUNNY     38  32  79 W7        30.26R WCI  33
GALESBURG      CLOUDY    37  33  87 W9        30.20R WCI  30
JACKSONVILLE   CLOUDY    34  29  83 W6        30.24R WCI  29
LACON          CLOUDY    37  32  84 W6        30.19R WCI  32
LAWRENCEVILLE  PTSUNNY   35  30  82 NW6       30.25R WCI  30
LITCHFIELD     SUNNY     33  30  90 SW3       30.25R
$$


CITY           SKY/WX    TMP DP  RH WIND       PRES   REMARKS
LINCOLN        CLOUDY    38  32  78 W5        30.22R WCI  35
MACOMB         CLOUDY    37  33  84 W8        30.25R WCI  31
MATTOON        CLOUDY    36  29  75 W8        30.22R WCI  30
MT CARMEL AP   SUNNY     33  31  92 W5        30.25R FOG     WCI  29
OLNEY-NOBLE AP SUNNY     34  32  93 W7        30.26R WCI  28
PARIS          CLOUDY    37  33  85 W9        30.21R WCI  30
PEORIA         CLOUDY    37  32  82 W7        30.21R WCI  32
PONTIAC        CLOUDY    38  36  93 W8        30.19R WCI  32
RANTOUL        CLOUDY    38  34  85 W10       30.19R WCI  31
SPRINGFIELD    CLOUDY    37  31  78 W10       30.24R WCI  30
TAYLORVILLE    CLOUDY    34  30  85 W8        30.25R WCI  28
$$

...REGIONAL REPORTS...


CITY           SKY/WX    TMP DP  RH WIND       PRES   REMARKS
CHICAGO O`HARE CLOUDY    38  31  76 W10       30.13R WCI  31
KANKAKEE       CLOUDY    37  33  87 W12       30.18R WCI  29
MOLINE         CLOUDY    39  32  76 W7        30.19R WCI  34
MOUNT STERLING CLOUDY    33  29  85 SW6       30.23R WCI  27
MOUNT VERNON   NOT AVBL
PITTSFIELD     SUNNY     34  29  82 W5        30.25S WCI  30
QUINCY         CLOUDY    33  29  85 W5        30.24R WCI  29
ROCKFORD       LGT SNOW  33  31  92 NW8       30.18R FOG     WCI  26
$$


CITY           SKY/WX    TMP DP  RH WIND       PRES   REMARKS
BURLINGTON     CLOUDY    37  33  85 W7        30.22R WCI  32
CEDAR RAPIDS   CLOUDY    35  34  96 NW12      30.19R WCI  27
DES MOINES     CLOUDY    37  32  82 N7        30.23R WCI  32
KIRKSVILLE     SUNNY     33  28  81 W6        30.24S WCI  28
OTTUMWA        CLOUDY    37  31  78 W7        30.23R WCI  32
ST LOUIS       MOSUNNY   38  28  67 W5        30.26R WCI  34
$$


CITY           SKY/WX    TMP DP  RH WIND       PRES   REMARKS
TERRE HAUTE    CLOUDY    37  30  75 W9        30.22R WCI  30
EVANSVILLE     SUNNY     38  33  82 CALM      30.26R
INDIANAPOLIS   CLOUDY    37  30  75 W10       30.18R WCI  30
LAFAYETTE      CLOUDY    37  32  82 W9        30.17R WCI  30
MADISON        CLOUDY    33  25  72 NW6       30.14R WCI  28
MILWAUKEE      CLOUDY    35  23  61 NW13      30.12R WCI  26
$$






USA.gov is the U.S. government's official web portal to all federal, state and local government web resources and services.